GFSSW_prec_cloud_057.txt.gz
Cloud_Cover
40 75 5 0 38 99 100 100 100 100 100 100 100 100 58 6 22 0 0 0 0 0 0 0 0 0 0 0 0 0 0 0 0 0 0 0 0 0 0 0 0 0 0 0 0
79 8 5 5 0 2 4 40 100 100 100 100 93 45 77 7 0 0 0 0 0 0 0 2 1 0 5 5 4 1 0 0 0 0 0 0 0 0 0 0 0 0 0 0 0
100 99 6 5 5 2 0 0 5 23 73 80 70 7 1 0 5 0 1 3 5 5 5 5 5 6 5 7 5 5 5 0 3 0 0 0 0 0 0 0 0 0 0 0 0
100 100 100 34 18 5 5 5 5 4 1 5 5 5 3 5 10 7 5 43 5 5 11 5 5 3 16 58 4 0 2 0 0 0 0 0 0 0 0 0 0 0 0 0 0
100 100 100 100 98 61 51 61 14 70 6 5 6 5 5 5 30 43 5 19 21 10 9 2 0 0 2 16 6 5 14 5 0 0 0 0 0 0 0 0 0 0 0 0 0
100 100 100 100 100 88 60 87 44 88 99 75 45 89 20 68 47 35 49 66 54 34 17 5 5 5 5 13 18 14 88 21 0 0 0 0 0 0 0 0 0 0 0 0 0
100 100 100 100 100 100 99 76 91 77 75 89 98 61 18 74 87 58 22 49 13 43 17 40 5 5 12 16 91 100 100 77 5 3 0 0 0 0 0 0 0 0 0 0 0
100 100 100 100 100 100 100 100 99 40 90 88 98 100 57 80 13 58 54 57 66 29 41 92 25 5 5 6 5 78 71 36 5 5 0 2 4 0 0 0 0 0 0 0 0
97 100 100 100 100 100 100 100 100 100 94 83 44 95 100 99 89 17 23 61 59 9 10 5 5 27 16 30 6 5 5 73 37 5 0 0 5 0 0 0 4 3 0 0 0
100 100 100 100 100 100 100 100 100 100 100 98 56 54 96 100 100 94 53 44 38 9 17 19 32 50 80 59 5 5 13 29 99 65 0 0 5 5 5 3 3 0 0 0 0
100 100 100 100 100 100 100 100 100 100 100 100 100 71 74 95 100 100 100 67 53 47 66 41 32 98 95 5 58 45 5 8 99 6 0 0 4 5 5 5 5 5 0 0 0
100 100 100 100 100 100 100 100 100 100 100 100 100 100 100 100 100 100 100 100 100 100 100 100 100 100 100 100 97 8 6 56 6 2 5 3 4 5 5 5 5 5 5 0 0
100 100 100 100 100 100 100 100 100 100 100 100 100 100 100 100 100 100 100 100 100 100 100 100 100 100 100 100 100 100 12 69 5 5 2 0 0 1 5 16 9 5 4 0 0
100 100 100 100 100 100 100 100 100 100 97 100 100 100 100 100 100 100 100 100 100 100 100 100 100 100 100 100 100 100 60 24 60 3 0 0 0 5 18 19 9 5 0 0 0
100 100 100 100 100 100 100 100 100 100 100 100 100 100 100 100 100 100 100 100 100 100 100 100 100 100 100 100 100 44 100 67 5 0 0 0 0 23 100 98 47 2 0 0 0
100 100 100 100 100 100 100 100 100 100 100 72 93 100 98 100 100 100 100 100 100 100 100 100 100 100 100 100 100 95 8 50 10 0 0 0 0 95 82 78 97 4 0 0 0
100 100 100 100 100 100 100 100 100 100 48 82 80 100 100 100 100 100 100 100 100 100 100 100 96 100 100 100 100 100 100 100 7 0 0 0 0 83 100 34 5 5 1 0 0
92 100 100 100 100 100 100 100 100 100 74 14 65 100 92 100 100 100 100 100 100 100 100 100 100 100 100 100 100 100 100 24 7 4 0 0 0 0 6 95 0 5 5 5 0
100 100 100 100 100 100 100 100 99 40 100 37 85 100 100 100 98 100 100 100 100 100 100 100 90 100 100 100 100 86 26 82 58 24 10 0 0 0 4 5 5 0 0 4 5
97 100 100 100 100 100 100 100 97 30 37 100 90 97 72 100 98 93 57 16 47 100 100 100 48 47 76 100 69 60 78 64 76 7 4 0 0 4 10 5 5 2 0 0 0
100 100 100 100 100 100 100 100 51 30 100 100 100 100 66 100 100 100 47 41 100 100 100 100 81 27 5 5 16 100 63 88 8 2 2 4 7 5 6 5 5 5 5 1 0
99 96 100 100 100 94 100 22 100 99 99 100 100 100 50 68 100 100 76 100 100 100 100 100 98 7 10 19 10 5 5 5 5 5 26 5 23 29 1 1 5 0 0 0 0
46 88 60 99 100 100 100 100 72 100 100 100 100 100 91 92 97 100 77 85 100 100 100 100 99 76 72 15 98 98 100 100 100 100 100 60 17 40 9 87 68 0 0 1 5
34 10 16 97 48 100 57 100 100 100 100 100 100 100 100 98 68 39 61 79 100 100 100 100 100 22 5 27 78 44 84 71 80 58 7 4 41 98 89 58 4 1 0 0 0
100 32 20 82 5 84 100 96 100 100 89 100 100 100 100 100 100 100 99 100 100 100 100 100 100 96 9 44 12 8 100 100 51 4 4 26 5 100 100 43 42 28 4 0 4
100 76 12 10 80 26 100 100 100 100 100 100 100 100 100 100 100 100 100 100 100 100 100 100 100 100 100 100 100 100 100 100 100 100 43 55 100 100 94 100 11 5 58 100 93
100 99 98 3 5 19 49 100 100 100 100 100 100 100 100 100 100 100 100 100 100 100 100 100 100 100 100 100 100 100 100 100 100 100 100 66 45 100 96 73 100 100 100 100 100

GFSSW_prec_cloud_060.txt.gz
Cloud_Cover
72 77 100 100 100 100 100 100 100 100 100 100 100 100 100 100 100 100 97 95 20 16 2 3 0 0 0 0 0 0 0 0 0 0 0 0 0 0 0 0 0 0 0 0 0
86 42 89 100 100 100 100 100 100 100 100 100 100 100 100 100 100 100 100 97 5 5 3 0 0 0 0 0 1 5 5 5 0 0 0 0 0 0 0 0 0 0 0 0 0
100 46 97 26 100 100 100 100 100 100 100 100 100 100 100 100 100 100 100 19 5 3 0 0 0 0 0 1 4 5 5 0 0 0 0 0 0 0 0 0 0 0 0 0 0
100 100 47 100 76 42 99 100 100 100 100 100 100 100 100 100 100 100 100 92 5 1 0 0 0 2 0 0 3 5 8 5 5 2 0 0 0 0 0 0 0 0 0 0 0
100 100 100 71 70 91 30 94 100 100 100 100 100 100 100 100 100 100 92 5 2 0 0 0 5 5 2 0 0 0 5 5 5 5 1 0 0 0 0 0 0 0 0 0 0
100 100 100 100 99 21 50 42 66 100 100 100 100 100 100 100 91 10 5 5 2 0 2 5 5 5 1 0 0 4 5 19 7 61 16 0 0 0 0 0 0 0 0 0 0
100 100 100 100 100 100 100 38 75 81 13 50 42 38 60 15 24 6 5 5 5 5 5 5 5 5 5 5 3 5 5 21 81 65 75 0 0 0 0 0 0 0 0 0 0
100 100 100 100 100 100 100 100 99 20 48 45 7 5 25 5 5 6 30 7 5 5 5 31 5 5 5 34 24 5 5 5 5 28 82 5 5 0 0 0 0 0 0 0 0
100 100 100 100 100 100 100 100 100 100 95 52 78 98 26 10 32 7 14 6 6 5 16 11 5 5 5 26 15 5 5 5 5 5 5 5 30 0 0 0 4 1 0 0 0
100 100 100 100 100 100 100 100 100 100 100 97 76 78 100 91 65 74 8 5 12 45 45 8 17 6 5 5 5 4 5 8 5 3 0 0 9 5 0 3 5 5 4 2 0
100 100 100 100 100 100 100 100 100 100 100 100 83 84 100 100 94 68 19 5 5 10 5 24 5 75 93 5 5 5 5 19 56 5 0 0 4 5 0 5 5 5 5 5 5
100 100 100 100 100 100 100 100 100 100 100 100 100 93 99 100 100 99 56 67 50 26 10 5 6 78 9 5 5 6 11 21 16 5 0 0 4 5 8 5 31 13 4 1 3
100 100 100 100 100 100 100 100 100 100 100 100 100 100 100 100 100 100 84 64 72 82 89 51 5 60 21 11 66 83 38 46 5 5 2 0 0 5 93 81 100 99 4 0 0
100 100 100 100 100 100 100 100 100 100 100 100 100 100 100 100 100 100 100 100 53 99 10 51 98 100 100 100 82 62 66 25 66 5 5 0 0 32 89 100 100 100 5 0 0
100 100 100 100 100 100 100 100 100 100 100 100 100 66 100 100 100 100 100 100 100 100 100 61 100 90 100 100 100 99 100 99 10 5 4 0 0 20 97 100 100 100 28 0 0
100 100 100 100 100 100 100 100 100 100 100 14 100 100 100 100 100 100 100 100 100 100 100 100 100 100 100 100 100 100 100 100 100 32 0 0 0 70 63 92 100 100 22 0 0
100 100 100 100 100 100 100 100 100 100 100 27 78 100 100 100 100 100 100 100 100 100 100 100 100 100 100 100 100 100 100 100 69 5 1 0 0 22 100 89 15 19 1 0 0
100 100 100 100 100 100 100 100 100 100 100 30 5 100 100 100 100 100 100 100 100 100 100 100 100 100 100 100 100 100 100 98 11 21 5 3 0 0 1 48 98 0 5 58 0
82 6 87 100 100 100 100 100 98 46 28 100 100 100 83 100 100 100 100 100 100 100 100 100 100 100 100 100 100 100 99 100 100 6 2 0 0 0 3 16 94 10 1 0 0
57 100 33 84 100 100 100 100 47 72 78 100 77 100 24 99 100 100 100 100 100 100 100 100 35 95 81 100 94 21 15 25 53 14 4 0 0 0 5 29 66 93 41 6 0
100 99 66 8 91 100 100 98 74 63 100 100 100 100 52 98 100 100 100 100 100 100 100 100 94 49 87 44 99 100 87 38 29 3 0 2 0 5 7 12 96 100 93 18 5
38 94 100 100 97 65 100 100 19 100 100 100 100 100 10 60 86 100 100 100 100 100 100 100 100 91 92 98 100 100 89 31 6 38 12 5 1 72 18 0 14 100 100 100 9
90 95 16 70 90 98 5 89 73 42 77 100 100 100 100 80 92 88 36 98 100 100 100 100 96 27 6 24 13 62 98 95 64 42 5 0 11 100 14 67 56 5 17 48 6
90 42 20 5 30 98 88 40 63 43 40 100 87 100 100 100 90 39 5 79 100 100 100 100 100 82 5 16 21 10 78 100 100 98 52 72 100 100 100 100 30 3 3 5 7
100 46 6 85 4 9 94 100 100 83 100 100 100 100 100 100 100 99 100 100 100 100 100 100 100 100 97 100 100 100 100 100 39 54 65 87 12 100 100 100 99 100 100 77 6
100 99 95 5 5 1 3 10 97 68 100 100 100 100 100 100 100 100 94 97 100 100 100 100 100 100 100 100 100 100 100 81 53 52 98 44 29 100 100 100 100 72 30 54 98
100 100 100 63 8 28 15 4 0 35 75 100 100 100 100 100 100 100 100 100 100 100 100 100 100 100 100 100 100 100 5 73 84 94 100 53 79 100 100 100 100 100 100 69 9

GFSSW_prec_cloud_063.txt.gz
Cloud_Cover
85 100 100 100 100 100 100 100 100 100 100 100 100 100 100 100 100 100 100 98 27 64 10 5 5 4 5 1 0 0 0 0 0 0 0 0 0 0 0 0 0 0 0 0 0
100 90 100 100 100 100 100 100 100 100 100 100 100 100 100 100 100 100 100 94 100 100 29 15 24 5 5 5 0 0 0 0 0 0 0 0 0 0 0 0 0 0 0 0 0
100 96 100 100 100 100 100 100 100 100 100 100 100 100 100 100 100 100 100 100 100 74 36 27 5 5 5 0 0 0 0 0 0 0 0 0 0 0 0 0 0 0 0 0 0
100 100 100 100 100 100 100 100 100 100 100 100 100 100 100 100 100 100 100 100 98 76 34 28 5 5 5 0 0 0 0 0 0 0 2 5 0 0 0 0 0 0 0 0 0
100 100 100 100 100 100 100 100 100 100 100 100 100 100 100 100 100 100 100 100 82 50 8 22 5 5 3 0 0 0 0 0 0 0 0 5 4 0 0 0 0 0 0 0 0
100 100 100 100 100 100 100 100 100 100 100 100 100 100 100 100 100 100 100 100 100 62 59 19 5 5 0 0 0 0 0 0 0 5 11 14 5 0 0 0 0 0 0 0 0
100 100 100 100 100 100 100 100 100 100 100 100 100 100 100 100 100 100 100 99 53 88 87 23 5 1 0 0 0 0 0 0 0 0 6 5 5 0 0 0 0 0 0 0 0
100 100 100 100 100 100 100 100 100 100 100 100 100 100 100 100 100 100 100 100 100 77 29 5 5 0 0 0 0 0 0 0 0 0 0 3 1 4 0 0 0 0 0 0 0
100 100 100 100 100 100 100 100 100 100 83 96 99 99 100 100 100 100 100 100 100 67 6 5 5 2 0 0 0 0 0 3 5 3 0 0 0 0 0 4 5 1 0 0 0
100 100 100 100 100 100 100 100 100 100 100 85 80 27 25 36 98 88 91 95 100 43 5 1 5 5 0 2 0 0 0 5 1 0 0 0 0 0 0 1 5 5 4 0 0
100 100 100 100 100 100 100 100 100 100 100 100 100 100 100 42 29 5 14 38 57 13 44 5 5 6 5 2 3 0 0 0 0 0 0 0 1 0 0 1 3 5 0 0 0
100 100 100 100 100 100 100 100 100 100 100 100 100 100 100 100 100 92 14 6 35 29 45 5 11 5 5 5 4 5 4 5 5 0 0 0 4 2 0 3 5 3 6 5 0
100 100 100 100 100 100 100 100 100 100 100 100 100 100 100 100 100 100 100 94 27 12 23 26 44 10 17 5 5 5 5 5 0 0 0 0 5 38 8 0 3 41 21 4 0
100 100 100 100 100 100 100 100 100 99 100 100 100 100 100 100 100 100 100 100 100 78 47 10 67 96 100 98 22 5 5 0 2 2 0 0 10 100 100 90 85 54 5 4 0
100 100 100 100 100 100 100 100 100 100 100 56 100 100 100 100 100 100 100 100 100 100 100 87 68 49 90 100 90 35 10 5 5 5 0 0 0 95 100 100 100 86 17 4 0
100 100 63 100 100 100 100 100 100 100 88 5 100 100 99 100 100 100 100 100 100 100 100 100 100 100 66 100 97 86 98 70 5 5 0 2 5 95 33 45 99 100 100 64 0
100 100 100 100 100 100 100 100 100 100 14 5 16 100 100 98 100 100 100 100 100 100 100 100 100 100 100 100 100 100 100 100 48 5 2 0 0 97 100 18 25 100 100 93 1
100 100 100 100 100 100 100 100 100 76 41 5 3 100 100 97 98 100 100 100 100 100 100 100 100 100 100 100 100 100 100 97 67 67 32 5 1 97 100 100 3 6 5 30 29
100 100 100 100 100 100 100 100 99 60 100 94 38 63 47 98 96 85 88 92 100 100 100 100 100 100 100 100 100 100 100 99 35 6 5 0 4 5 99 100 100 6 5 3 5
100 93 100 100 100 100 100 100 37 83 88 97 89 100 82 99 100 100 100 88 100 100 100 100 14 88 100 100 100 100 100 100 100 98 30 0 0 0 12 100 100 100 26 5 25
73 100 100 100 97 98 100 100 19 100 100 100 73 100 96 89 100 100 100 100 100 100 100 100 100 9 5 50 100 100 100 100 100 88 20 1 0 13 99 100 100 100 100 5 62
9 64 27 100 64 100 71 22 5 100 100 100 100 73 100 100 96 100 60 100 100 100 100 100 100 32 39 46 84 7 6 26 5 5 43 5 5 100 100 100 100 100 100 92 5
38 12 37 62 76 66 18 12 100 30 5 92 100 51 82 100 96 8 5 59 100 100 100 100 100 57 9 6 49 74 63 100 100 100 68 4 0 100 5 71 100 100 95 92 98
94 50 39 100 92 8 66 97 23 5 5 5 19 77 94 100 100 98 79 38 100 100 100 100 100 100 5 5 5 5 61 66 93 94 2 2 26 100 100 100 100 48 72 100 100
100 33 4 11 11 97 96 86 75 84 23 5 26 4 60 100 100 100 100 100 100 74 100 100 100 100 100 100 79 99 30 100 100 4 93 4 1 97 100 100 100 100 100 67 29
100 99 100 6 1 0 8 5 43 100 100 100 100 100 100 95 97 99 100 100 98 92 100 100 72 94 92 100 100 100 100 99 6 22 96 5 4 100 100 86 37 36 10 15 31
95 100 99 25 43 74 1 0 0 2 4 28 59 100 100 100 100 100 100 100 100 100 100 100 100 100 100 69 99 100 30 23 73 26 42 5 29 100 100 100 100 100 72 86 28

GFSSW_prec_cloud_069.txt.gz
Cloud_Cover
100 100 100 100 100 100 100 100 100 100 100 100 100 100 100 100 100 100 100 100 100 100 90 100 98 83 70 100 11 5 2 0 0 0 0 0 0 0 0 0 0 0 0 0 0
100 100 100 100 100 100 100 100 100 100 100 100 100 100 100 100 100 100 100 100 100 89 61 80 90 100 100 32 41 5 5 0 0 0 0 0 0 0 0 0 0 0 0 0 0
100 100 100 100 100 100 100 100 100 100 100 100 100 100 100 100 100 100 100 100 96 72 65 88 100 100 59 33 5 5 0 0 0 0 0 0 0 0 0 0 0 0 0 0 0
100 100 100 100 100 100 100 100 100 100 100 100 100 100 100 100 100 100 100 100 100 100 100 100 100 95 30 11 5 5 2 2 0 0 0 0 0 0 0 0 0 0 0 0 0
100 100 100 100 100 100 100 100 100 100 100 100 100 100 100 100 99 100 100 100 100 100 100 100 100 77 38 34 5 5 2 0 0 0 0 0 0 0 0 0 0 0 0 0 0
100 100 100 100 100 100 100 100 100 100 100 100 100 100 100 100 100 99 100 100 100 100 100 87 100 100 100 24 5 5 4 1 0 0 0 0 0 0 0 0 0 0 0 0 0
100 100 100 100 100 100 100 100 100 100 100 100 100 100 100 100 100 100 100 100 100 100 100 100 100 100 99 49 9 5 5 0 0 0 0 0 0 0 0 0 0 0 0 0 0
100 100 100 100 100 100 100 100 100 100 100 100 100 100 100 100 100 100 100 100 100 100 78 100 98 100 100 82 54 5 5 5 0 0 0 0 0 0 0 0 0 0 0 0 0
100 100 100 100 100 100 100 100 100 100 100 100 100 100 100 100 100 100 100 100 100 98 100 100 100 100 100 100 67 27 8 5 1 5 0 0 0 0 0 0 0 0 0 0 0
100 100 100 100 100 100 100 100 100 100 100 100 100 100 100 100 100 100 100 100 100 100 100 95 99 100 100 100 94 11 5 5 4 5 0 0 0 0 0 0 0 0 0 0 0
100 100 100 100 100 100 100 100 100 100 100 100 100 100 100 100 100 100 100 100 100 100 100 100 92 100 100 98 18 40 5 41 5 3 0 0 0 0 0 0 0 0 0 0 0
100 100 100 100 100 100 100 100 100 100 100 100 100 100 100 100 100 100 100 100 100 100 100 100 100 100 100 100 59 18 35 17 6 3 0 0 0 0 0 0 0 0 0 0 0
100 100 100 100 100 100 100 100 100 100 100 100 100 100 100 100 100 100 100 100 100 100 100 100 100 100 100 84 89 78 61 55 50 5 2 0 0 0 0 0 0 0 0 0 0
100 100 100 100 100 100 100 99 99 99 100 100 100 100 100 100 90 100 100 100 100 100 100 99 100 100 100 100 100 100 77 15 5 5 4 0 0 0 0 0 0 0 0 5 0
100 100 100 100 100 100 100 100 97 100 100 98 100 100 100 100 100 100 100 96 100 70 54 85 100 100 100 88 15 5 5 5 5 2 0 0 0 5 5 0 3 0 2 2 0
100 100 100 100 100 100 100 100 100 100 99 6 82 67 100 100 100 100 100 100 96 90 72 17 17 29 42 71 6 5 5 5 5 3 0 1 0 36 57 81 36 6 19 5 0
100 100 100 100 100 100 100 100 100 100 84 10 59 92 87 96 95 100 100 100 100 98 100 100 88 81 47 43 43 6 5 5 5 4 0 0 0 52 10 89 100 100 100 32 6
100 100 100 100 100 100 100 100 100 59 100 27 64 100 93 100 57 100 100 100 100 100 100 100 100 100 100 100 100 96 15 4 0 5 2 0 1 93 10 56 100 100 100 100 100
88 100 100 100 100 100 100 100 85 100 64 8 84 81 50 52 29 46 68 98 100 100 100 100 100 100 100 100 100 100 100 100 37 5 5 0 1 5 93 100 49 94 100 100 100
100 90 100 100 100 100 100 100 76 74 60 100 40 99 97 94 75 90 52 86 86 100 100 97 42 83 100 100 100 100 100 100 100 97 93 5 12 5 100 53 100 53 52 90 100
100 100 100 100 100 100 98 99 100 100 100 100 100 100 91 63 79 88 74 84 76 96 100 100 85 39 32 31 100 100 100 98 100 90 83 44 24 100 100 99 100 64 51 8 15
100 100 100 100 100 100 100 100 100 100 100 100 100 100 100 100 100 100 95 100 92 100 100 100 62 40 10 66 5 5 9 99 31 3 31 25 0 99 100 100 92 9 6 40 5
99 88 100 100 100 94 100 100 100 100 100 100 100 99 97 86 100 100 98 93 93 100 99 97 65 78 24 11 6 20 5 100 100 100 43 4 0 100 5 5 64 46 90 29 5
80 86 96 100 82 100 100 100 100 100 100 98 100 100 59 44 83 87 59 72 100 100 100 100 100 44 17 54 99 34 34 92 100 100 13 24 0 25 53 8 39 100 55 5 2
99 55 32 91 83 92 16 81 100 100 100 100 100 100 100 100 100 95 100 97 52 86 99 100 100 100 75 49 66 100 100 100 100 11 98 2 19 5 100 100 100 9 14 5 4
100 58 81 86 99 100 99 33 100 100 44 100 100 100 100 100 100 100 100 100 100 100 100 100 69 82 55 46 93 100 62 16 5 13 84 18 5 90 100 100 12 66 32 5 5
100 100 82 93 99 75 94 99 63 86 28 43 40 98 100 100 100 100 100 54 70 99 100 100 100 100 90 22 100 100 6 17 5 12 36 67 9 100 100 100 86 49 28 5 10

GFSSW_prec_cloud_072.txt.gz
Cloud_Cover
100 100 100 100 100 100 100 100 100 100 100 100 100 100 100 100 100 100 100 99 100 100 100 100 100 100 88 5 82 16 5 26 5 0 0 0 0 0 0 0 0 0 0 0 0
100 100 100 100 100 100 100 100 100 100 100 100 100 100 100 100 100 100 100 100 100 100 100 100 100 79 31 87 84 5 10 72 3 0 0 0 0 0 0 0 0 0 0 0 0
100 100 100 100 100 100 100 100 100 100 100 100 100 100 100 100 100 100 100 100 100 100 100 100 99 98 78 5 5 5 7 38 2 0 0 0 0 0 0 0 0 0 0 0 0
100 100 100 100 100 100 100 100 100 100 100 100 100 100 100 100 100 100 100 100 100 100 100 100 100 49 21 55 13 5 22 4 0 5 0 0 0 0 0 0 0 0 0 0 0
100 100 100 100 100 100 100 100 100 100 100 100 100 100 100 100 100 100 100 100 100 100 100 100 81 96 45 41 43 75 96 5 4 5 0 0 0 0 0 0 0 0 0 0 0
100 100 100 100 100 100 100 100 100 100 100 100 100 100 100 100 100 100 100 100 100 100 100 100 99 40 26 63 44 82 39 6 17 2 0 0 0 0 0 0 0 0 0 0 0
100 100 100 100 100 100 100 100 100 100 100 100 100 100 100 100 100 100 100 100 100 100 100 100 68 57 96 100 100 78 6 5 5 2 0 0 0 0 0 0 0 0 0 0 0
100 100 100 100 100 100 100 100 100 100 100 100 100 100 100 100 100 100 99 100 100 100 100 90 70 100 87 100 100 97 36 44 11 3 0 0 0 0 0 0 0 0 0 0 0
100 100 100 100 100 100 100 100 100 100 100 100 100 100 100 100 100 100 100 100 100 100 99 100 89 100 100 100 100 100 29 10 8 5 0 0 0 0 0 0 0 0 0 0 0
100 100 100 100 100 100 100 100 100 100 100 100 100 100 100 100 100 100 100 100 100 100 100 100 100 100 100 100 100 94 14 13 35 5 5 1 1 0 0 0 0 0 0 0 0
100 100 100 100 100 100 100 100 100 100 100 100 100 100 100 100 100 100 100 100 100 100 100 100 100 100 100 98 90 73 100 82 6 31 5 3 4 0 0 0 0 0 0 0 0
100 100 100 100 100 100 100 100 100 100 100 100 100 100 100 100 100 100 100 100 100 100 100 100 100 100 100 94 100 100 62 97 14 50 5 4 5 5 0 0 0 0 0 0 0
100 100 100 100 100 100 97 100 100 100 100 100 100 100 100 100 100 100 100 100 100 100 100 100 100 100 100 100 100 96 100 99 75 5 85 7 5 5 3 3 0 0 0 0 0
100 100 100 100 100 100 100 96 100 100 100 100 100 100 100 100 100 100 100 100 100 100 100 100 100 100 100 100 100 100 89 82 13 5 5 5 87 45 33 5 0 0 0 0 0
100 100 100 100 100 100 100 100 100 100 100 100 100 100 100 100 100 97 100 100 100 100 100 100 100 100 100 100 100 92 88 31 76 8 5 11 18 100 49 5 0 0 0 0 0
100 100 100 100 100 100 100 100 100 100 100 11 76 100 100 100 100 100 100 100 100 100 100 100 100 100 100 100 100 100 81 30 17 5 5 5 5 98 84 5 0 0 0 0 0
100 100 100 100 100 100 100 100 100 100 76 12 34 73 100 100 100 100 100 100 100 100 100 100 100 100 100 100 100 100 99 34 5 5 5 3 2 96 5 4 5 5 5 1 0
100 99 100 100 100 100 100 100 100 92 100 9 39 100 100 100 100 100 100 100 100 100 100 100 98 89 100 100 100 100 56 5 5 4 5 0 4 99 7 5 97 95 10 19 5
100 99 100 100 100 100 100 100 100 98 100 24 65 88 98 100 78 89 100 100 100 100 100 100 100 100 100 100 81 7 10 92 5 5 0 0 3 9 98 25 49 94 92 100 100
100 100 100 100 100 100 100 94 99 92 100 100 100 91 62 95 69 100 60 61 100 100 78 92 37 70 100 100 100 100 100 100 90 88 49 5 5 52 100 100 79 51 82 5 74
100 100 100 100 100 100 100 91 100 96 100 100 100 99 91 81 81 100 100 91 98 100 100 100 75 5 5 17 99 100 100 55 100 100 100 90 59 100 100 100 100 100 100 77 5
100 95 92 97 100 74 100 100 100 100 100 100 100 100 100 100 100 65 100 100 100 100 100 100 99 14 5 5 8 7 67 100 86 5 96 45 0 99 100 100 100 100 95 96 100
100 100 100 100 100 100 100 100 100 100 100 100 100 100 100 100 98 100 100 100 100 87 70 84 86 48 5 17 7 5 19 100 100 100 39 2 0 100 35 14 55 100 100 35 5
100 100 100 100 100 100 100 100 100 100 100 100 100 100 100 100 100 100 100 100 100 100 100 100 88 15 14 86 63 48 75 100 100 99 6 42 1 98 100 85 100 76 11 9 5
100 100 100 94 100 84 94 100 100 100 100 100 100 100 100 93 100 100 100 100 100 100 92 94 100 86 34 18 100 100 99 90 99 55 100 4 14 73 100 100 84 11 60 30 3
100 100 100 100 100 100 62 39 100 100 100 100 100 100 100 100 100 100 100 62 38 100 100 57 94 94 9 13 100 100 32 9 99 88 100 12 5 98 100 100 73 100 100 63 5
100 100 100 100 100 100 91 100 100 100 100 100 100 100 100 100 100 100 100 100 100 100 100 100 100 96 27 38 95 88 24 51 30 5 93 99 8 98 87 100 100 100 100 92 94

GFSSW_prec_cloud_075.txt.gz
Cloud_Cover
100 100 100 100 100 100 100 100 100 100 100 100 100 100 100 100 100 85 100 100 100 59 45 100 99 74 100 97 5 96 47 2 31 6 3 2 0 0 0 0 0 0 0 0 0
100 100 100 100 100 100 100 100 100 100 100 100 100 100 100 100 100 100 100 100 100 100 99 100 100 100 84 56 92 100 97 19 4 0 0 0 0 0 0 0 0 0 0 0 0
100 100 100 100 100 100 100 100 100 100 100 100 100 100 100 100 100 100 100 100 100 92 100 100 76 100 49 72 100 100 66 76 5 0 4 0 0 0 0 0 0 0 0 0 0
100 100 100 100 100 100 100 100 100 100 100 100 100 100 100 100 100 100 100 100 100 100 100 99 96 9 64 91 100 100 89 6 5 4 0 5 0 0 0 0 0 0 0 0 0
100 100 100 100 100 100 100 100 100 100 100 100 100 100 100 100 100 100 100 100 100 100 100 100 100 76 99 92 100 100 100 28 4 5 5 7 1 0 0 0 0 0 0 0 0
100 100 100 100 100 100 100 100 100 100 100 100 100 100 100 100 100 100 100 100 100 100 100 100 100 100 100 100 100 100 100 47 15 5 7 59 0 0 0 0 0 0 0 0 0
100 100 100 100 100 100 100 100 100 100 100 100 100 100 100 100 100 100 100 100 100 100 70 100 100 68 100 100 100 67 92 5 5 5 5 5 5 18 2 0 0 0 0 0 0
100 100 100 100 100 100 100 100 100 100 100 100 100 100 100 100 100 100 100 100 100 100 100 100 100 100 96 100 86 61 85 99 15 39 74 98 1 6 5 0 0 0 0 0 0
100 100 100 100 100 100 100 100 100 100 100 100 100 100 100 100 100 100 100 100 100 99 100 78 100 100 99 88 75 55 94 32 5 5 13 45 5 27 4 0 0 0 0 0 0
100 100 100 100 100 100 100 100 100 100 100 100 100 100 100 100 100 100 100 100 100 100 100 85 100 96 99 93 99 48 5 5 27 88 83 94 6 1 2 0 0 0 0 0 0
100 100 100 100 100 100 100 100 100 100 100 100 100 100 100 100 100 100 100 100 100 100 99 40 100 100 75 79 68 5 6 53 100 100 54 12 5 44 5 5 5 0 0 0 0
100 100 100 100 100 100 100 100 100 100 100 100 100 100 100 100 100 100 100 100 100 100 99 40 98 100 100 96 89 7 38 85 56 100 100 80 100 61 26 5 5 5 0 0 0
100 100 100 100 100 100 100 100 100 100 100 100 100 100 100 100 100 100 100 100 100 100 100 100 95 100 100 100 94 98 17 100 83 100 100 56 96 88 63 66 5 5 5 0 0
100 100 100 100 100 100 100 100 100 100 100 100 100 100 100 100 100 100 100 100 100 98 100 100 55 93 100 100 100 100 100 79 100 12 55 43 93 100 96 44 32 5 5 0 0
100 100 100 100 100 100 100 100 100 100 100 100 100 100 100 100 100 100 100 100 100 100 100 100 100 100 100 100 89 100 84 69 77 35 100 45 22 100 92 93 79 33 4 2 0
100 100 100 100 100 100 100 100 100 100 100 100 100 88 100 100 100 100 100 100 100 100 100 100 100 100 100 100 100 100 100 86 63 100 88 80 35 100 100 100 89 98 70 24 5
100 100 100 100 100 100 100 100 100 100 57 99 100 100 100 100 100 100 100 100 100 100 100 100 100 100 100 100 100 100 100 100 97 100 84 97 51 100 100 100 100 100 100 31 5
100 100 100 100 100 100 100 100 100 100 100 80 100 100 100 100 100 100 100 100 100 100 100 100 100 100 100 100 100 100 100 68 99 100 100 68 74 100 100 100 100 100 100 64 6
100 100 100 100 100 100 100 100 100 100 98 82 74 100 100 98 100 100 100 100 100 100 100 100 100 100 100 100 100 30 84 100 57 12 13 12 93 100 100 100 100 100 100 100 18
100 100 100 100 99 100 100 100 100 100 100 100 100 94 54 100 63 99 100 100 100 100 100 100 100 100 100 100 100 100 100 100 100 92 49 29 93 100 100 100 100 100 99 31 6
100 98 100 100 100 100 100 100 100 100 100 97 84 88 63 70 100 100 100 80 100 100 100 100 100 100 100 86 100 100 100 100 100 81 78 63 73 100 100 100 100 89 60 11 1
100 100 100 98 100 100 93 100 100 100 100 100 100 100 94 100 100 100 100 62 96 100 100 96 88 100 100 100 87 20 68 97 42 29 91 4 21 100 100 100 100 100 93 60 5
100 96 100 100 86 75 90 100 100 100 100 100 100 100 100 100 100 100 100 100 100 100 100 100 59 5 14 34 39 98 100 100 100 83 3 23 16 100 71 100 100 100 6 16 5
100 100 100 100 100 100 100 100 100 100 100 100 100 100 100 100 100 100 100 87 100 100 100 100 100 98 38 51 30 35 75 98 88 6 5 4 11 100 100 100 100 100 9 5 5
100 100 100 100 100 100 100 100 100 100 100 100 100 100 100 100 100 100 100 93 100 100 100 100 89 94 100 100 100 100 75 81 71 7 68 5 4 96 100 98 62 69 47 26 5
100 100 100 100 100 100 100 100 100 100 100 100 100 100 100 100 100 100 100 59 92 96 91 95 97 100 100 100 100 98 5 93 100 78 100 67 77 100 100 100 98 62 82 76 10
100 100 100 100 100 100 100 100 100 100 100 100 100 100 100 100 100 99 100 100 100 100 100 100 99 88 37 66 100 84 5 60 85 100 100 100 52 13 71 100 99 83 93 81 37